カタログに戻る

NATO 3B

運用中軍事GEO
NORAD 9785·PAYLOAD· XX

打ち上げ Jan 28, 1977 から Cape Canaveral Space Force Station

Loading…

TLE

最新Source: Space-Track

元期: Sep 14, 2026, 12:48 UTC

1 09785U 77005A   26257.53399385 -.00000151  00000-0  00000-0 0  9993
2 09785   8.0318 310.7771 0039747  51.5206 343.3615  0.95270211117524

AllMySatでNATO 3Bをリアルタイム追跡

Download on the App Store